Tracking 32412 objects as of 6-Dec-2025
HD Live streaming from Space Station
objects crossing your sky now

CZ-3B R/B

Track CZ-3B R/B now!
10-day predictions


NORAD ID: 41022
Int'l Code: 2015-063B
Perigee: 222.9 km
Apogee: 21,776.2 km
Inclination: 26.9 °
Period: 379.7 minutes
Semi major axis: 17370 km
RCS: Unknown
Launch date: November 3, 2015
Source: People's Republic of China (PRC)
Launch site: Xichang Space Center, China (XSC)

Note: This is a ROCKET BODY
Your satellite tracking list
Your tracking list is empty




NASA's NSSDC Master Catalog

Two Line Element Set (TLE):
1 41022U 15063B   25339.77965701  .00028977  00000-0  16328-2 0  9993
2 41022  26.9362 331.7153 6203986 221.8097  68.9656  3.79211929101493
Source of the keplerian elements: AFSPC